| time (UTC) | temp F | wind direction | speed MPH | gust MPH | rain 1hr in | rain 24hr in | rain mn in | humidity % | barometer mb |
| 20260508114607 | 36 | 5 | 2.0 | 5.0 | 0.00 | 0.00 | 0.00 | 72 | 750.2 |
| 20260508113102 | 36 | 26 | 2.0 | 4.0 | 0.00 | 0.00 | 0.00 | 71 | 750.3 |
| 20260508111606 | 35 | 44 | 0.0 | 3.0 | 0.00 | 0.00 | 0.00 | 73 | 750.3 |
| 20260508110054 | 35 | 351 | 1.0 | 4.0 | 0.00 | 0.00 | 0.00 | 74 | 750.4 |
| 20260508104551 | 35 | 295 | 0.0 | 3.0 | 0.00 | 0.00 | 0.00 | 74 | 750.4 |
| 20260508103050 | 35 | 46 | 2.0 | 4.0 | 0.00 | 0.00 | 0.00 | 73 | 750.4 |
| 20260508101548 | 35 | 115 | 1.0 | 4.0 | 0.00 | 0.00 | 0.00 | 73 | 750.4 |
| 20260508100046 | 35 | 82 | 0.0 | 2.0 | 0.00 | 0.00 | 0.00 | 72 | 750.4 |
| 20260508094547 | 35 | 86 | 1.0 | 3.0 | 0.00 | 0.00 | 0.00 | 71 | 750.5 |
| 20260508093044 | 36 | 67 | 0.0 | 3.0 | 0.00 | 0.00 | 0.00 | 70 | 750.5 |
| 20260508091555 | 36 | 116 | 1.0 | 4.0 | 0.00 | 0.00 | 0.00 | 70 | 750.4 |
| 20260508090042 | 36 | 16 | 0.0 | 2.0 | 0.00 | 0.00 | 0.00 | 71 | 750.5 |
| 20260508084536 | 36 | 69 | 1.0 | 4.0 | 0.00 | 0.00 | 0.00 | 69 | 750.6 |
| 20260508083037 | 36 | 44 | 1.0 | 3.0 | 0.00 | 0.00 | 0.00 | 68 | 750.5 |
| 20260508081543 | 36 | 95 | 1.0 | 3.0 | 0.00 | 0.00 | 0.00 | 66 | 750.6 |
| 20260508080038 | 37 | 102 | 0.0 | 4.0 | 0.00 | 0.00 | 0.00 | 67 | 750.7 |
| 20260508074529 | 37 | 15 | 0.0 | 3.0 | 0.00 | 0.00 | 0.00 | 64 | 750.6 |
| 20260508073027 | 38 | 327 | 1.0 | 3.0 | 0.00 | 0.00 | 0.00 | 63 | 750.6 |
| 20260508071528 | 38 | 32 | 0.0 | 4.0 | 0.00 | 0.00 | 0.00 | 61 | 750.6 |
| 20260508070024 | 38 | 78 | 1.0 | 3.0 | 0.00 | 0.00 | 0.00 | 61 | 750.5 |
| 20260508064526 | 38 | 78 | 0.0 | 4.0 | 0.00 | 0.00 | 0.00 | 62 | 750.5 |
| 20260508063018 | 38 | 194 | 0.0 | 0.0 | 0.00 | 0.00 | 0.00 | 62 | 750.5 |
| 20260508061517 | 38 | 106 | 0.0 | 0.0 | 0.00 | 0.00 | 0.00 | 64 | 750.5 |
| 20260508060014 | 38 | 133 | 0.0 | 0.0 | 0.00 | 0.00 | 0.00 | 61 | 750.4 |
| 20260508054514 | 38 | 156 | 0.0 | 1.0 | 0.00 | 0.00 | 0.00 | 61 | 750.6 |
| 20260508053014 | 38 | 86 | 0.0 | 3.0 | 0.00 | 0.00 | 0.00 | 62 | 750.7 |
| 20260508051525 | 38 | 260 | 0.0 | 3.0 | 0.00 | 0.00 | 0.00 | 61 | 750.8 |
| 20260508050012 | 39 | 260 | 0.0 | 2.0 | 0.00 | 0.00 | 0.00 | 60 | 750.8 |
| 20260508044512 | 39 | 260 | 0.0 | 0.0 | 0.00 | 0.00 | 0.00 | 60 | 750.9 |
| 20260508043018 | 40 | 260 | 0.0 | 3.0 | 0.00 | 0.00 | 0.00 | 59 | 750.9 |
| 20260508041515 | 40 | 260 | 0.0 | 2.0 | 0.00 | 0.00 | 0.00 | 59 | 750.9 |
| 20260508040011 | 41 | 260 | 0.0 | 4.0 | 0.00 | 0.00 | 0.00 | 57 | 750.9 |
| 20260508034510 | 41 | 281 | 0.0 | 1.0 | 0.00 | 0.00 | 0.00 | 56 | 750.9 |
| 20260508033010 | 42 | 281 | 0.0 | 2.0 | 0.00 | 0.00 | 0.00 | 55 | 750.6 |
| 20260508031509 | 43 | 294 | 1.0 | 3.0 | 0.00 | 0.00 | 0.00 | 54 | 750.4 |
| 20260508030009 | 43 | 355 | 1.0 | 7.0 | 0.00 | 0.00 | 0.00 | 52 | 750.2 |
| 20260508024508 | 44 | 294 | 0.0 | 4.0 | 0.00 | 0.00 | 0.00 | 52 | 750.1 |
| 20260508023009 | 45 | 304 | 0.0 | 6.0 | 0.00 | 0.00 | 0.00 | 50 | 750.0 |
| 20260508021508 | 46 | 13 | 0.0 | 4.0 | 0.00 | 0.00 | 0.00 | 49 | 749.9 |
| 20260508020012 | 47 | 85 | 0.0 | 2.0 | 0.00 | 0.00 | 0.00 | 46 | 749.7 |
| 20260508014510 | 48 | 355 | 1.0 | 6.0 | 0.00 | 0.00 | 0.00 | 45 | 749.6 |
| 20260508013008 | 50 | 19 | 1.0 | 4.0 | 0.00 | 0.00 | 0.00 | 43 | 749.4 |
| 20260508011505 | 53 | 49 | 2.0 | 5.0 | 0.00 | 0.00 | 0.00 | 39 | 749.4 |
| 20260508010004 | 57 | 105 | 0.0 | 0.0 | 0.00 | 0.00 | 0.00 | 39 | 749.4 |
| 20260508004506 | 60 | 105 | 0.0 | 0.0 | 0.00 | 0.00 | 0.00 | 26 | 749.4 |
| 20260508003002 | 64 | 232 | 0.0 | 2.0 | 0.00 | 0.00 | 0.00 | 21 | 749.2 |
| 20260508001502 | 64 | 94 | 0.0 | 4.0 | 0.00 | 0.00 | 0.00 | 21 | 749.2 |
| 20260508000004 | 63 | 255 | 2.0 | 6.0 | 0.00 | 0.00 | 0.00 | 21 | 749.1 |
| 20260507234501 | 62 | 140 | 2.0 | 7.0 | 0.00 | 0.00 | 0.00 | 22 | 749.1 |
| 20260507233100 | 61 | 118 | 4.0 | 7.0 | 0.00 | 0.00 | 0.00 | 21 | 749.2 |
| 20260507231559 | 62 | 255 | 1.0 | 8.0 | 0.00 | 0.00 | 0.00 | 22 | 749.2 |
| 20260507230056 | 62 | 270 | 2.0 | 8.0 | 0.00 | 0.00 | 0.00 | 24 | 749.3 |
| 20260507224558 | 61 | 315 | 0.0 | 5.0 | 0.00 | 0.01 | 0.00 | 23 | 749.3 |
| 20260507223056 | 60 | 206 | 2.0 | 10.0 | 0.00 | 0.01 | 0.00 | 25 | 749.3 |
| 20260507221550 | 60 | 202 | 2.0 | 9.0 | 0.00 | 0.01 | 0.00 | 25 | 749.3 |
| 20260507220047 | 61 | 232 | 1.0 | 6.0 | 0.00 | 0.01 | 0.00 | 25 | 749.5 |
| 20260507214545 | 62 | 150 | 3.0 | 7.0 | 0.00 | 0.04 | 0.00 | 24 | 749.7 |
| 20260507213047 | 62 | 186 | 1.0 | 6.0 | 0.00 | 0.04 | 0.00 | 22 | 749.9 |
| 20260507211539 | 65 | 108 | 1.0 | 5.0 | 0.00 | 0.04 | 0.00 | 18 | 750.1 |
| 20260507210037 | 63 | 134 | 2.0 | 9.0 | 0.00 | 0.04 | 0.00 | 21 | 750.3 |
| 20260507204532 | 63 | 132 | 2.0 | 7.0 | 0.00 | 0.10 | 0.00 | 22 | 750.4 |
| 20260507203031 | 63 | 255 | 2.0 | 9.0 | 0.00 | 0.10 | 0.00 | 19 | 750.8 |
| 20260507201526 | 62 | 114 | 5.0 | 9.0 | 0.00 | 0.10 | 0.00 | 20 | 750.8 |
| 20260507200023 | 63 | 111 | 1.0 | 9.0 | 0.00 | 0.10 | 0.00 | 25 | 751.0 |
| 20260507194521 | 63 | 169 | 2.0 | 6.0 | 0.00 | 0.19 | 0.00 | 21 | 751.1 |
| 20260507193019 | 63 | 126 | 2.0 | 8.0 | 0.00 | 0.19 | 0.00 | 18 | 751.3 |
| 20260507191516 | 62 | 179 | 1.0 | 7.0 | 0.00 | 0.19 | 0.00 | 23 | 751.4 |
| 20260507190016 | 59 | 224 | 1.0 | 7.0 | 0.00 | 0.19 | 0.00 | 24 | 751.5 |
| 20260507184510 | 61 | 77 | 1.0 | 5.0 | 0.00 | 0.25 | 0.00 | 22 | 751.6 |
| 20260507183006 | 59 | 114 | 3.0 | 8.0 | 0.00 | 0.25 | 0.00 | 20 | 751.7 |
| 20260507181505 | 58 | 114 | 3.0 | 9.0 | 0.00 | 0.25 | 0.00 | 22 | 751.9 |
| 20260507180059 | 59 | 176 | 2.0 | 6.0 | 0.00 | 0.25 | 0.00 | 24 | 752.0 |
| 20260507174605 | 58 | 152 | 3.0 | 8.0 | 0.00 | 0.28 | 0.00 | 25 | 752.0 |
| 20260507173051 | 58 | 205 | 1.0 | 6.0 | 0.00 | 0.28 | 0.00 | 27 | 752.0 |
| 20260507171600 | 56 | 210 | 2.0 | 4.0 | 0.00 | 0.28 | 0.00 | 31 | 752.1 |
| 20260507170048 | 53 | 193 | 1.0 | 6.0 | 0.00 | 0.28 | 0.00 | 33 | 752.2 |
| 20260507164539 | 48 | 67 | 4.0 | 8.0 | 0.00 | 0.30 | 0.00 | 29 | 752.3 |
| 20260507163034 | 46 | 140 | 2.0 | 4.0 | 0.00 | 0.30 | 0.00 | 35 | 752.4 |
| 20260507161530 | 45 | 259 | 1.0 | 6.0 | 0.00 | 0.30 | 0.00 | 41 | 752.5 |
| 20260507160027 | 43 | 109 | 2.0 | 6.0 | 0.00 | 0.30 | 0.00 | 39 | 752.7 |
| 20260507154522 | 41 | 85 | 1.0 | 4.0 | 0.00 | 0.31 | 0.00 | 43 | 752.9 |
| 20260507153018 | 40 | 99 | 0.0 | 4.0 | 0.00 | 0.31 | 0.00 | 50 | 753.0 |
| 20260507151515 | 38 | 92 | 2.0 | 4.0 | 0.00 | 0.31 | 0.00 | 55 | 753.2 |
| 20260507150015 | 37 | 30 | 0.0 | 0.0 | 0.00 | 0.31 | 0.00 | 54 | 753.2 |
| 20260507144515 | 38 | 27 | 0.0 | 0.0 | 0.00 | 0.32 | 0.00 | 56 | 753.2 |
| 20260507143010 | 36 | 27 | 0.0 | 0.0 | 0.00 | 0.32 | 0.00 | 60 | 753.2 |
| 20260507141506 | 35 | 22 | 0.0 | 0.0 | 0.00 | 0.32 | 0.00 | 68 | 753.2 |
| 20260507140006 | 31 | 19 | 0.0 | 1.0 | 0.00 | 0.32 | 0.00 | 77 | 753.2 |
| 20260507134558 | 25 | 23 | 1.0 | 3.0 | 0.00 | 0.32 | 0.00 | 80 | 753.4 |
| 20260507133055 | 25 | 238 | 0.0 | 0.0 | 0.00 | 0.32 | 0.00 | 80 | 753.4 |
| 20260507131554 | 25 | 238 | 0.0 | 1.0 | 0.00 | 0.32 | 0.00 | 80 | 753.3 |
| 20260507130103 | 24 | 238 | 0.0 | 0.0 | 0.00 | 0.32 | 0.00 | 81 | 753.2 |
| 20260507124551 | 25 | 238 | 0.0 | 2.0 | 0.00 | 0.33 | 0.00 | 80 | 753.1 |
| 20260507123051 | 25 | 246 | 0.0 | 1.0 | 0.00 | 0.33 | 0.00 | 79 | 752.9 |
| 20260507121548 | 25 | 246 | 0.0 | 3.0 | 0.00 | 0.33 | 0.00 | 78 | 752.8 |
| 20260507120049 | 24 | 246 | 0.0 | 3.0 | 0.00 | 0.33 | 0.00 | 80 | 752.8 |